Date String (YYYY-MM-DD hh:mm:ss) UTC,Instrument flags,Ambient pressure (hPa),Sample flow (lpm),Bypass flow (lpm),Sample temperature (°C),Ambient temperature (°C),ASC tube jacket temperature (°C),LED temperature (°C),Box temperature (°C),Sample RH (%),Span deviation,Mass concentration (μg/m³),Mass concentration (μg/m³),Mass concentration (μg/m³)
DateTimeUTC,F1_M11,P_M11,Q1_M11,Q2_M11,T1_M11,T2_M11,T3_M11,T4_M11,T5_M11,U1_M11,ZSPAN_M11,X0_M11,X2_M11,X1_M11
2023-01-30 18:00:00,,0825.4,4.99,0.00,22.8,23.4,00.0,31.5,24.8,04.0,-000.1,0012.24,0007.27,0006.64
2023-01-30 18:01:00,,0825.4,4.99,0.00,22.8,23.0,00.0,31.5,24.8,03.9,-000.4,0012.18,0007.23,0006.61
2023-01-30 18:02:00,,0825.5,5.01,0.00,22.8,22.4,00.0,31.6,24.6,04.0,-000.2,0010.86,0007.18,0006.57
2023-01-30 18:03:00,,0825.4,4.98,0.00,22.8,22.0,00.0,31.6,24.5,04.0,-000.2,0010.34,0007.13,0006.53
2023-01-30 18:04:00,,0825.4,5.01,0.00,22.7,21.7,00.0,31.6,24.5,04.1,0000.2,0010.35,0007.12,0006.52
2023-01-30 18:05:00,,0825.4,4.99,0.00,22.7,21.4,00.0,31.6,24.4,04.1,0000.0,0010.47,0007.12,0006.53
2023-01-30 18:06:00,,0825.4,4.99,0.00,22.6,21.0,00.0,31.6,24.3,04.0,-000.4,0010.57,0007.14,0006.53
2023-01-30 18:07:00,,0825.5,5.00,0.00,22.6,20.7,00.0,31.6,24.1,03.9,0000.5,0010.67,0007.19,0006.55
2023-01-30 18:08:00,,0825.4,5.02,0.00,22.5,20.5,00.0,31.5,24.0,04.0,0000.6,0010.71,0007.23,0006.57
2023-01-30 18:09:00,,0825.5,5.01,0.00,22.4,20.4,00.0,31.5,24.0,03.9,0000.7,0010.68,0007.26,0006.62
2023-01-30 18:10:00,,0825.4,5.01,0.00,22.4,20.8,00.0,31.5,24.1,03.9,0000.6,0010.73,0007.30,0006.66
2023-01-30 18:11:00,,0825.5,5.01,0.00,22.5,22.1,00.0,31.4,24.3,03.9,0000.9,0010.77,0007.33,0006.69
2023-01-30 18:12:00,,0825.4,4.98,0.00,22.6,22.7,00.0,31.5,24.6,03.9,0001.0,0010.87,0007.39,0006.74
2023-01-30 18:13:00,,0825.4,5.01,0.00,22.7,22.4,00.0,31.5,24.5,04.0,0000.6,0010.87,0007.41,0006.78
2023-01-30 18:14:00,,0825.5,4.99,0.00,22.7,22.0,00.0,31.5,24.5,04.1,0000.4,0011.36,0007.45,0006.80
2023-01-30 18:15:00,,0825.5,4.99,0.00,22.7,21.7,00.0,31.5,24.4,04.1,0000.5,0011.48,0007.46,0006.80
2023-01-30 18:16:00,,0825.4,5.00,0.00,22.6,21.4,00.0,31.5,24.3,04.1,0000.5,0011.38,0007.43,0006.77
2023-01-30 18:17:00,,0825.4,5.00,0.00,22.6,21.2,00.0,31.5,24.3,04.1,0000.9,0011.28,0007.39,0006.72
2023-01-30 18:18:00,,0825.5,4.99,0.00,22.6,21.1,00.0,31.5,24.2,04.0,0001.0,0011.27,0007.38,0006.69
2023-01-30 18:19:00,,0825.4,5.00,0.00,22.5,20.9,00.0,31.5,24.2,04.1,0001.6,0011.25,0007.34,0006.63
2023-01-30 18:20:00,,0825.3,5.02,0.00,22.5,20.9,00.0,31.5,24.1,04.2,0002.0,0011.15,0007.26,0006.55
2023-01-30 18:21:00,,0825.4,4.99,0.00,22.5,20.8,00.0,31.5,24.1,04.1,0002.7,0011.00,0007.15,0006.48
2023-01-30 18:22:00,,0825.4,4.99,0.00,22.5,21.5,00.0,31.4,24.2,04.1,0002.4,0011.27,0007.10,0006.44
2023-01-30 18:23:00,,0825.3,4.99,0.00,22.6,22.7,00.0,31.4,24.5,04.2,0001.7,0011.18,0007.04,0006.39
2023-01-30 18:24:00,,0825.3,4.98,0.00,22.7,22.9,00.0,31.4,24.7,04.1,0001.9,0011.21,0007.03,0006.35
2023-01-30 18:25:00,,0825.2,5.02,0.00,22.7,22.4,00.0,31.5,24.5,04.1,0002.4,0010.81,0007.00,0006.34
2023-01-30 18:26:00,,0825.1,5.00,0.00,22.7,21.9,00.0,31.5,24.5,04.2,0002.3,0010.54,0006.96,0006.32
2023-01-30 18:27:00,,0825.1,5.00,0.00,22.6,21.5,00.0,31.5,24.4,04.2,0002.4,0010.50,0006.94,0006.31
2023-01-30 18:28:00,,0825.1,4.99,0.00,22.6,21.1,00.0,31.5,24.2,04.1,0002.3,0010.67,0006.91,0006.30
2023-01-30 18:29:00,,0825.1,5.00,0.00,22.5,20.8,00.0,31.5,24.1,04.1,0001.9,0010.67,0006.82,0006.27
2023-01-30 18:30:00,,0824.9,4.99,0.00,22.5,20.7,00.0,31.5,24.0,04.1,0001.6,0010.57,0006.76,0006.25
2023-01-30 18:31:00,,0824.9,5.00,0.00,22.4,20.6,00.0,31.4,24.0,04.2,0001.7,0010.60,0006.75,0006.23
2023-01-30 18:32:00,,0824.9,5.00,0.00,22.4,21.2,00.0,31.4,24.1,04.2,0001.1,0010.67,0006.74,0006.20
2023-01-30 18:33:00,,0824.9,4.98,0.00,22.5,22.4,00.0,31.4,24.4,04.2,0001.6,0010.43,0006.72,0006.16
2023-01-30 18:34:00,,0824.9,4.99,0.00,22.6,22.8,00.0,31.4,24.6,04.1,0002.4,0010.45,0006.72,0006.12
2023-01-30 18:35:00,,0824.8,5.01,0.00,22.7,22.3,00.0,31.4,24.5,04.1,0003.0,0010.36,0006.66,0006.09
2023-01-30 18:36:00,,0824.8,5.01,0.00,22.6,21.8,00.0,31.5,24.4,04.0,0002.6,0010.46,0006.66,0006.05
2023-01-30 18:37:00,,0824.9,4.97,0.00,22.6,21.4,00.0,31.5,24.3,04.0,0002.0,0010.58,0006.68,0006.02
2023-01-30 18:38:00,,0824.9,5.02,0.00,22.5,21.1,00.0,31.5,24.2,04.1,0002.2,0010.63,0006.67,0005.98
2023-01-30 18:39:00,,0825.0,5.00,0.00,22.5,20.9,00.0,31.4,24.1,04.2,0002.2,0010.47,0006.66,0005.96
2023-01-30 18:40:00,,0825.0,5.00,0.00,22.4,20.8,00.0,31.4,24.0,04.2,0001.8,0010.17,0006.63,0005.94
2023-01-30 18:41:00,,0824.9,5.01,0.00,22.4,20.6,00.0,31.4,24.0,04.2,0002.0,0010.12,0006.61,0005.92
2023-01-30 18:42:00,,0824.9,4.99,0.00,22.4,20.5,00.0,31.4,23.9,04.2,0001.8,0010.22,0006.64,0005.94
2023-01-30 18:43:00,,0824.9,5.00,0.00,22.3,21.0,00.0,31.4,24.0,04.3,0002.0,0010.17,0006.63,0005.94
2023-01-30 18:44:00,,0824.9,5.01,0.00,22.5,22.3,00.0,31.3,24.3,04.3,0001.9,0009.98,0006.60,0005.93
2023-01-30 18:45:00,,0824.9,4.99,0.00,22.6,22.9,00.0,31.4,24.6,04.2,0000.7,0009.99,0006.61,0005.93
2023-01-30 18:46:00,,0824.9,4.99,0.00,22.6,22.3,00.0,31.4,24.5,04.2,-000.1,0010.05,0006.63,0005.94
2023-01-30 18:47:00,,0824.8,4.99,0.00,22.6,21.8,00.0,31.4,24.3,04.2,0000.8,0009.96,0006.61,0005.93
2023-01-30 18:48:00,,0824.9,4.99,0.00,22.6,21.5,00.0,31.4,24.2,04.1,0001.0,0009.93,0006.62,0005.95
2023-01-30 18:49:00,,0824.9,5.00,0.00,22.5,21.2,00.0,31.4,24.2,04.0,0000.5,0010.21,0006.61,0005.97
2023-01-30 18:50:00,,0824.9,5.00,0.00,22.5,21.0,00.0,31.4,24.0,04.0,0000.2,0010.74,0006.64,0005.99
2023-01-30 18:51:00,,0824.9,5.06,0.00,22.4,20.9,00.0,31.4,24.0,04.1,0000.8,0010.83,0006.67,0006.01
2023-01-30 18:52:00,,0824.8,4.99,0.00,22.4,20.8,00.0,31.4,24.0,04.1,0000.6,0010.86,0006.70,0006.03
2023-01-30 18:53:00,,0824.7,5.01,0.00,22.4,20.7,00.0,31.4,24.0,04.1,0000.3,0010.85,0006.72,0006.05
2023-01-30 18:54:00,,0824.8,5.01,0.00,22.3,20.6,00.0,31.3,24.0,04.1,0000.1,0010.96,0006.73,0006.06
2023-01-30 18:55:00,,0824.6,5.01,0.00,22.3,20.7,00.0,31.3,23.9,04.1,0000.0,0011.25,0006.79,0006.08
2023-01-30 18:56:00,,0824.7,5.01,0.00,22.4,21.8,00.0,31.3,24.2,04.1,0000.5,0011.41,0006.81,0006.12
2023-01-30 18:57:00,,0824.5,4.99,0.00,22.5,22.8,00.0,31.3,24.5,04.0,0000.5,0012.13,0006.82,0006.13
2023-01-30 18:58:00,,0824.5,5.00,0.00,22.6,22.5,00.0,31.3,24.5,04.0,0000.5,0012.90,0006.85,0006.17
2023-01-30 18:59:00,,0824.6,4.99,0.00,22.6,21.9,00.0,31.4,24.3,04.0,0000.6,0012.89,0006.81,0006.17
